Location: Bathurst
(33.4193°S, 149.5775°E)
Time: 17:26:59
(UTC+10:00)

Transit 2A - Visible Passes

Search period start: 15 June 2021 00:00
Search period end: 25 June 2021 00:00
Orbit: 601 x 958 km, 66.7° (Epoch: 14 June)

Date Brightness Start Highest point End Pass type
(mag) Time Alt. Az. Time Alt. Az. Time Alt. Az.
15 Jun 8.8 03:52:44 10° NE 03:56:51 19° ENE 04:01:04 10° ESE visible
15 Jun 6.4 05:33:22 10° NW 05:39:30 62° WSW 05:45:52 10° SSE visible
16 Jun 9.2 03:20:46 10° ENE 03:22:56 12° E 03:25:07 10° E visible
16 Jun 6.3 04:59:04 10° NNW 05:05:17 88° WSW 05:11:44 10° SSE visible
17 Jun 6.7 04:28:58 41° N 04:31:08 65° ENE 04:37:29 10° SSE visible
17 Jun 7.6 06:10:13 10° W 06:14:54 21° SW 06:19:37 10° S visible
18 Jun 7.6 03:58:25 39° ESE 03:58:25 39° ESE 04:03:04 10° SE visible
18 Jun 7.2 05:39:03 27° WSW 05:40:26 29° SW 05:45:56 10° S visible
19 Jun 8.8 03:26:54 17° ESE 03:26:54 17° ESE 03:28:27 10° SE visible
19 Jun 7.1 05:07:29 36° SSW 05:07:29 36° SSW 05:12:04 10° SSE visible
20 Jun 7.9 04:35:26 26° S 04:35:26 26° S 04:38:05 10° SSE visible
21 Jun 8.7 04:03:05 15° SSE 04:03:05 15° SSE 04:03:58 10° SSE visible
21 Jun 8.2 05:43:37 13° SSW 05:43:37 13° SSW 05:45:01 10° SSW visible
22 Jun 8.5 05:11:03 12° S 05:11:03 12° S 05:11:43 10° S visible
